Hourly Data Report for November 03, 2021

MOUNT FOREST (AUT)
ONTARIO
Current Station Operator: ECCC - MSC

43°59'00.000" N
80°45'00.000" W
414.50 m
6145504
71631
WLS

Download Data

Hourly Data (November 2021)
Hourly Data Report for November 3, 2021
TIME
LST
Temp Definition
°C
Dew Point Definition
°C
Rel Hum Definition
%
Precip. Amount Definition
mm

Wind Dir Definition
10's deg

Wind Spd Definition
km/h
Visibility Definition
km
Stn Press Definition
kPa
Hmdx Definition


Wind Chill Definition


Weather Definition


00:00 -0.2 -0.5 98 0.1 27 8   97.08   -3 LegendNANA
01:00 -0.2 -0.4 98 0.0 30 10   97.16   -4 LegendNANA
02:00 -0.4 -0.8 97 0.0 33 6   97.18   -2 LegendNANA
03:00 -0.8 -1.1 97 0.0 31 8   97.23   -4 LegendNANA
04:00 -0.7 -1.0 98 0.0 30 9   97.25   -4 LegendNANA
05:00 -0.7 -1.0 98 0.0 31 7   97.32   -3 LegendNANA
06:00 -1.3 -1.6 98 0.0 25 3   97.35   -2 LegendNANA
07:00 -1.9 -2.2 98 0.0 29 2   97.39   -3 LegendNANA
08:00 -1.3 -1.7 98 0.0 25 4   97.44   -3 LegendNANA
09:00 -0.1 -1.0 94 0.0 26 4   97.51   -1 LegendNANA
10:00 1.2 -0.9 86 0.0 30 7   97.54     LegendNANA
11:00 2.4 -2.0 73 0.0 27 7   97.58     LegendNANA
12:00 2.5 -2.1 71 0.0 27 8   97.56     LegendNANA
13:00 2.2 -4.8 60 0.0 34 6   97.52     LegendNANA
14:00 2.4 -5.2 57 0.0 36 7   97.51     LegendNANA
15:00 2.6 -3.8 63 0.0 31 4   97.50     LegendNANA
16:00 2.2 -3.1 68 0.0 24 6   97.51     LegendNANA
17:00 1.9 -2.0 76 0.0 25 4   97.52     LegendNANA
18:00 0.5 -2.1 83 0.0 23 3   97.53     LegendNANA
19:00 -0.5 -1.7 92 0.0 25 2   97.56   -1 LegendNANA
20:00 -1.1 -1.9 94 0.0 24 2   97.58   -2 LegendNANA
21:00 -1.6 -2.1 96 0.0   0   97.57     LegendNANA
22:00 -0.9 -1.3 97 0.0 24 3   97.60   -2 LegendNANA
23:00 -0.6 -1.1 96 0.0 16 3   97.58   -2 LegendNANA

Notes on Data Quality.

Legend

  • E = Estimated
  • M = Missing
  • NA = Not Available*
  • [empty] = Indicates an unobserved value
Date modified: